Regional Weather Roundup
Issued by NWS Charleston, SC

Current Version | Previous Version | Graphics & Text | Print | Product List | Glossary Off
Versions: 1 2 3 4 5 6 7 8 9 10 11 12 13 14 15 16 17 18 19 20 21 22 23 24 25 26 27 28 29 30 31 32 33 34 35 36 37 38 39 40 41 42 43 44 45 46 47 48 49 50

090
ASUS42 KCHS 240727
RWRCHS

Regional Weather Roundup
National Weather Service Charleston SC
200 AM EST WED JAN 24 2018

NOTE: "fair" indicates few or no clouds below 12,000 feet with no
significant weather and/or obstructions to visibility.

Not all stations are quality controlled. Use data with caution,
especially dewpoint observations.

SCZ027-030-031-034>040-042>050-240800-
...Southeast South Carolina...

CITY           SKY/WX    TMP DP  RH WIND       PRES   REMARKS
N Charleston   FAIR      51  33  50 NW8       30.07S
Waterfront Prk   N/A     53  33  46 NW5       29.93R
Mount Pleasant FAIR      50  34  53 NW5       30.08R
Johns Island   FAIR      50  32  50 CALM      30.08S
Pinopolis        N/A     52  37  58 W8        29.99R
Moncks Corner  FAIR      45  30  57 CALM      30.07S
Summerville    FAIR      45  32  61 CALM      30.09R
Beaufort MCAS  FAIR      51  34  52 NW9       30.09S
Beaufort Arpt  FAIR      48  34  57 NW5       30.09S
Hilton Head Is FAIR      52  32  46 VRB7G13   30.11R
Walterboro     FAIR      45  32  61 CALM      30.09S
Allendale      FAIR      46  32  57 CALM      30.09R

...Southern Midlands and Pee Dee...

CITY           SKY/WX    TMP DP  RH WIND       PRES   REMARKS
Georgetown     FAIR      46  32  57 W3        30.07R
Kingstree      FAIR      43  32  65 W6        30.06R
Orangeburg     FAIR      47  31  53 NW8       30.08R
Barnwell         N/A     46  34  61 CALM      30.09S
Aiken          FAIR      41  32  70 W6        30.12R
Manning        FAIR      46  10  23 MISG      30.07R
Columbia       FAIR      46  34  62 W8        30.07R
Sumter         FAIR      45  30  56 W5        30.05R
Florence       FAIR      46  32  58 W5        30.05R
Myrtle Beach   FAIR      49  33  54 W8        30.06R
N Myrtle Beach FAIR      49  33  54 W5        30.04R

$$

GAZ063-065-086>088-099>101-113>116-118-119-134>141-150-240800-
...Southeast Georgia...

CITY           SKY/WX    TMP DP  RH WIND       PRES   REMARKS
Savannah Arpt  FAIR      48  33  56 NW6       30.11S
Hunter AAF     FAIR      44  31  59 W6        30.08S
Fort Stewart   FAIR      49  32  52 NW6       30.10R
Statesboro     FAIR      47  30  52 W5        30.12R
Sylvania       FAIR      42  36  78 CALM      30.12R
Claxton        FAIR      46  34  62 W6        30.13S

...CSRA, Central and far Southeast Georgia...

CITY           SKY/WX    TMP DP  RH WIND       PRES   REMARKS
Thomson        FAIR      41  30  65 N7        30.17R
Augusta-Bush   FAIR      44  31  60 NW6       30.10S
Augusta-Daniel FAIR      46  31  55 W6        30.10S
Swainsboro     FAIR      41  34  75 W5        30.14R
Vidalia        FAIR      46  34  61 NW3       30.14S
Eastman        FAIR      44  27  51 CALM      30.19R
Hazlehurst     FAIR      46  28  48 NW3       30.14S
Alma           FAIR      48  33  56 NW6       30.14R
Waycross       FAIR      45  30  55 N5        30.15R
Jesup          NOT AVBL
Baxley         FAIR      45  32  61 NW5       30.13S
Brunswick      FAIR      41  32  70 W3        30.15R
Saint Simons   FAIR      51  33  50 W3        30.13R

$$

SCZ027-028-034-036>038-045-046-048>050-GAZ119-141-240800-
...Lake and Supplemental Coastal Observations...

STATION/POSITION TIME  TEMP    WIND        PRES    WAVE   SWELL
                       AIR SEA DIR/SP/G            HT/PER HT/PER/DIR
                 (UTC) (F)     (DEG/KT/KT) (MB)    (FT/S) (FT/S/D)
Winyah Bay       0630   50     280/  4     1018.0R
Lake Murray      0720   45     310/  3/  6 1017.9S
ACE Basin NERRS  0645   49     260/  2     1019.0R
Fort Pulaski     0700   49 48  310/  7/  9 1019.6
Sapelo Island    0700   49     320/  4     1020.0

$$

ANZ835-935-AMZ111-154-330-350-352-354-370-450-454-472-240800-
...C-MAN and Buoy Observations...

STATION/POSITION TIME  TEMP    WIND        PRES    WAVE   SWELL
                       AIR SEA DIR/SP/G            HT/PER HT/PER/DIR
                 (UTC) (F)     (DEG/KT/KT) (MB)    (FT/S) (FT/S/D)
Buoy 41004       0710   58 69  310/ 19/ 25 1018.1
Buoy 41008       0650   52 50  280/  6/  6 1019.8R   2/ 7   2/110/ 7
Folly Beach CMAN 0700   49     290/  4/  5 1019.0R
Capers Nearshore 0708   49 53  310/ 12/ 16 1018.0R
Fripp Nearshore  0708   48 48  310/  8/ 12 1018.4R


STATION/POSITION TIME  TEMP    WIND        PRES    WAVE   SWELL
                       AIR SEA DIR/SP/G            HT/PER HT/PER/DIR
                 (UTC) (F)     (DEG/KT/KT) (MB)    (FT/S) (FT/S/D)
5E St. Marys GA  0700      51                N/A     2/ 6
Frying Pan Buoy  0710   57 62  290/ 19/ 23 1016.8
Buoy 41025       0710   60 69  310/ 21/ 27 1014.1
Cape Lookout NC  0700          280/ 10/ 11 1015.6R
Buoy 41002       0650   72 70  280/ 17/ 21 1015.5F   7/ 7
Buoy 41010       NOT AVBL
St Augustine FL  0700   54 53  320/  9/ 12 1020.5R


$$




USA.gov is the U.S. government's official web portal to all federal, state and local government web resources and services.